Flag for United Kingdom Weather past 2 weeks in Perth, Scotland, United Kingdom

Now
57 °F

Cool.


Feels Like: 54 °F
Forecast: 47 / 64 °F
Wind: 13 mph from Southwest

Location: Strathallan

Current Time: Jul 30, 2014 at 5:06:22 AM

Latest Report: Jul 30, 2014 at 4:00 AM


Visibility: 28 mi

Pressure: 29.84 "Hg

Humidity: 91%

Dew point: 54 °F

Location of PerthLocation

Historic Weather in Perth — Graph

°F

Perth temperature yesterday

Maximum temperature yesterday: 66 °F (at 12:00 PM)
Minimum temperature yesterday: 57 °F (at 3:00 AM)
Average temperature yesterday: 61 °F

Past Weeks' High & Low Weather Summary

 TemperatureHumidityPressure
High81 °F (Jul 25, 3:00 PM)99% (Jul 20, 1:00 AM)30.33 "Hg (Jul 20, 1:00 AM)
Low46 °F (Jul 28, 6:00 AM)31% (Jul 25, 6:00 PM)29.76 "Hg (Jul 19, 10:00 PM)
Average62 °F80%30.04 "Hg
* Reported Jul 15 3:00 AM — Jul 30 3:00 AM, Perth, Weather by CustomWeather, © 2014

Note: Actual official high and low records may vary slightly from our data, if they occured in-between our weather recording intervals... More about our weather records

Advertising

Perth weather history for previous 24 hours

 ConditionsComfort  
Time TempWeatherWind HumidityBarometerVisibility
3:00 AM
Jul 30
56 °FCool.10 mph86%29.86 "Hg17 mi
2:00 AM56 °FCool.13 mph84%29.87 "Hg22 mi
1:00 AM56 °FCool.7 mph86%29.89 "Hg31 mi
12:00 AM57 °FCool.8 mph83%29.90 "Hg31 mi
11:00 PM
Jul 29
57 °FCool.13 mph83%29.91 "Hg31 mi
10:00 PM59 °FCool.10 mph78%29.92 "Hg28 mi
9:00 PM60 °FCool.10 mph74%29.92 "Hg31 mi
8:00 PM62 °FCool.8 mph70%29.93 "Hg31 mi
7:00 PM63 °FMild.6 mph67%29.93 "Hg28 mi
6:00 PM64 °FMild.10 mph64%29.93 "Hg19 mi
4:00 PM65 °FMild.14 mph62%29.93 "Hg31 mi
3:00 PM66 °FMild.13 mph65%29.93 "Hg22 mi
2:00 PM66 °FMild.14 mph62%29.93 "Hg31 mi
1:00 PM66 °FMild.10 mph60%29.93 "Hg25 mi
12:00 PM66 °FMild.8 mph59%29.93 "Hg25 mi
11:00 AM65 °FMild.15 mph66%29.93 "Hg28 mi
10:00 AM65 °FMild.13 mph77%29.94 "Hg28 mi
9:00 AM61 °FCool.13 mph87%29.95 "Hg28 mi
8:00 AM59 °FCool.13 mph89%29.96 "Hg31 mi
7:00 AM58 °FCool.7 mph87%29.96 "Hg22 mi
6:00 AM58 °FCool.12 mph86%29.96 "Hg28 mi
5:00 AM58 °FCool.10 mph89%29.97 "Hg25 mi
Weather by CustomWeather, © 2014

See weather overviewHow to use our weather pages